Starlink 30605

operational
NORAD ID: 58101 Int'l Des: 2023-161 Owner: SPXS Country: US Constellation: starlink
LEOCIRCULAR

Über Starlink 30605

Beschreibung wird geladen...

Live-Position

3D-Globus wird geladen...

Nächste Überflüge

Höhenverlauf

Altitude vs Time

uPlot chart will show altitude changes over time

Zweizeiliger Elementsatz

1 58101U 23161E 25347.60765398 .00004778 00000-0 17334-3 0 9990
2 58101 53.1598 205.2643 0001166 80.9732 279.1400 15.30200353121248
Epoch: 13. Dez. 2025 • Age: 15 hours

Aktueller Status

Höhe 482.8 km
Geschwindigkeit 7.62 km/s
Subsatellitenpunkt -24.48°S, 125.11°W
Startdatum 21. Okt. 2023
Alter 2.1 years
Typ internet

Technische Details

Klassifizierung Payload
Masse 730.00 kg
Trockenmasse 700.00 kg
Gesamtmasse 730.00 kg
Länge 0.30 m
Durchmesser 4.10 m
Spannweite 29.00 m
Form Box + pan
Hersteller SPXS
Bus-Typ Starlink V2M
Phasenstatus In Orbit
Besitzer/Staat SPXS/US

Große Konstellationen

Loading constellations...